TIANGONG 1

Last updated on Mon Apr 02 2018 00:15:04 GMT+0000 (Coordinated Universal Time)

1 37820U 11053A 18091.67159643 .06702538 93469-5 14209-3 0 9996 2 37820 42.7393 196.1141 0005983 335.0657 25.0237 16.46560555373989

Satellite not in orbit